User: anonymous   Login
Location: Unspecified
(0.0000°N, 0.0000°E)
Time: 23:02:44
(UTC+00:00)
Language:

STARLINK-36047 - Orbit

View from above orbital plane
View from above orbital plane
View from above satellite
View from above satellite

Ground track
Ground track

The orbit is defined by the following mean orbital elements,

1 66795U          26145.42571501 +.00000000 +00000-0 +47213-3 0 00009
2 66795  42.9993  41.1133 0000252   5.5982 354.4872 15.27587086    04
Epoch (UTC): 25 May 2026 10:13:01
Eccentricity: 0.0000252
inclination: 42.9993°
perigee height: 483 km
apogee height: 483 km
right ascension of ascending node: 41.1133°
argument of perigee: 5.5982°
revolutions per day: 15.27587086
mean anomaly at epoch: 354.4872°

The dashed part of the orbit path shows where the satellite is in the earth's shadow,  

DLR